Wetterdaten: Woche 08.02.10 - 14.02.10 (KW6)
Datum Zeit Temperatur Luftfeuchte Luftdruck Niederschlag Windrichtung Wind
08.02.2010 00:00 -1,9 C 91 % 1014,5 hPa 0,0 l/m N 1,3 km/h (1 Bft)
08.02.2010 01:00 -2,3 C 93 % 1014,0 hPa 0,0 l/m O 2,5 km/h (1 Bft)
08.02.2010 02:00 -2,6 C 95 % 1013,5 hPa 0,0 l/m NO 3,3 km/h (1 Bft)
08.02.2010 03:00 -2,9 C 96 % 1012,9 hPa 0,0 l/m NO 5,9 km/h (2 Bft)
08.02.2010 04:00 -3,2 C 96 % 1012,1 hPa 0,0 l/m NO 6,1 km/h (2 Bft)
08.02.2010 05:00 -3,5 C 95 % 1011,4 hPa 0,0 l/m O-NO 6,9 km/h (2 Bft)
08.02.2010 06:00 -2,8 C 94 % 1010,9 hPa 0,0 l/m O-NO 11,4 km/h (2 Bft)
08.02.2010 07:00 -2,6 C 93 % 1010,5 hPa 0,0 l/m O-SO 8,3 km/h (2 Bft)
08.02.2010 08:00 -2,7 C 92 % 1009,9 hPa 0,0 l/m O-NO 11,2 km/h (2 Bft)
08.02.2010 09:00 -2,4 C 91 % 1009,4 hPa 0,0 l/m O 14,2 km/h (3 Bft)
08.02.2010 10:00 -2,2 C 90 % 1008,7 hPa 0,0 l/m O-NO 15,4 km/h (3 Bft)
08.02.2010 11:00 -2,5 C 91 % 1008,5 hPa 0,0 l/m O-SO 16,0 km/h (3 Bft)
08.02.2010 12:00 -2,6 C 92 % 1007,7 hPa 0,0 l/m O-NO 15,8 km/h (3 Bft)
08.02.2010 13:00 -2,7 C 90 % 1007,0 hPa 0,0 l/m O 15,2 km/h (3 Bft)
08.02.2010 14:00 -2,2 C 89 % 1006,8 hPa 0,0 l/m O 6,3 km/h (2 Bft)
08.02.2010 15:00 -1,8 C 88 % 1006,2 hPa 0,0 l/m O-NO 12,2 km/h (2 Bft)
08.02.2010 16:00 -1,9 C 87 % 1005,9 hPa 0,0 l/m O 11,3 km/h (2 Bft)
08.02.2010 17:00 -2,0 C 88 % 1005,7 hPa 0,0 l/m O-SO 8,0 km/h (2 Bft)
08.02.2010 18:00 -2,2 C 88 % 1005,5 hPa 0,0 l/m O 8,0 km/h (2 Bft)
08.02.2010 19:00 -2,3 C 89 % 1005,1 hPa 0,0 l/m O 6,7 km/h (2 Bft)
08.02.2010 20:00 -2,3 C 90 % 1004,8 hPa 0,0 l/m O-NO 6,3 km/h (2 Bft)
08.02.2010 21:00 -2,4 C 90 % 1004,6 hPa 0,0 l/m O 7,2 km/h (2 Bft)
08.02.2010 22:00 -2,4 C 91 % 1004,3 hPa 0,0 l/m NO 5,9 km/h (2 Bft)
08.02.2010 23:00 -2,6 C 91 % 1004,4 hPa 0,0 l/m NO 6,0 km/h (2 Bft)
09.02.2010 00:00 -2,8 C 91 % 1004,2 hPa 0,0 l/m O 7,2 km/h (2 Bft)
09.02.2010 01:00 -3,0 C 92 % 1003,9 hPa 0,0 l/m SO 6,8 km/h (2 Bft)
09.02.2010 02:00 -3,2 C 92 % 1003,9 hPa 0,0 l/m O-SO 5,1 km/h (1 Bft)
09.02.2010 03:00 -3,3 C 93 % 1003,7 hPa 0,0 l/m O-SO 5,1 km/h (1 Bft)
09.02.2010 04:00 -3,6 C 94 % 1003,8 hPa 0,0 l/m O-SO 6,1 km/h (2 Bft)
09.02.2010 05:00 -3,9 C 95 % 1003,5 hPa 0,0 l/m O-SO 5,3 km/h (1 Bft)
09.02.2010 06:00 -4,0 C 95 % 1003,2 hPa 0,0 l/m O 3,2 km/h (1 Bft)
09.02.2010 07:00 -4,0 C 95 % 1002,9 hPa 0,0 l/m O-SO 3,5 km/h (1 Bft)
09.02.2010 08:00 -4,0 C 95 % 1003,1 hPa 0,0 l/m O-SO 3,6 km/h (1 Bft)
09.02.2010 09:00 -3,8 C 95 % 1003,1 hPa 0,0 l/m N-NO 6,3 km/h (2 Bft)
09.02.2010 10:00 -3,4 C 93 % 1002,8 hPa 0,0 l/m O-SO 7,1 km/h (2 Bft)
09.02.2010 11:00 -2,8 C 91 % 1002,7 hPa 0,0 l/m O 8,0 km/h (2 Bft)
09.02.2010 12:00 -2,0 C 89 % 1002,1 hPa 0,0 l/m O 9,4 km/h (2 Bft)
09.02.2010 13:00 -1,2 C 87 % 1001,8 hPa 0,0 l/m O 9,9 km/h (2 Bft)
09.02.2010 14:00 -0,9 C 87 % 1001,6 hPa 0,0 l/m O 9,3 km/h (2 Bft)
09.02.2010 15:00 -1,0 C 88 % 1001,4 hPa 0,0 l/m O-NO 10,5 km/h (2 Bft)
09.02.2010 16:00 -1,4 C 89 % 1001,3 hPa 0,0 l/m N-NO 9,1 km/h (2 Bft)
09.02.2010 17:00 -2,1 C 92 % 1001,3 hPa 0,0 l/m O-NO 10,1 km/h (2 Bft)
09.02.2010 18:00 -2,4 C 93 % 1001,8 hPa 0,0 l/m O-NO 6,3 km/h (2 Bft)
09.02.2010 19:00 -2,7 C 94 % 1002,0 hPa 0,0 l/m NO 7,8 km/h (2 Bft)
09.02.2010 20:00 -2,9 C 95 % 1002,2 hPa 0,0 l/m O 6,5 km/h (2 Bft)
09.02.2010 21:00 -3,1 C 96 % 1002,4 hPa 0,0 l/m O-NO 6,4 km/h (2 Bft)
09.02.2010 22:00 -3,2 C 96 % 1002,5 hPa 0,0 l/m NO 6,6 km/h (2 Bft)
09.02.2010 23:00 -3,5 C 96 % 1002,6 hPa 0,0 l/m O-NO 5,3 km/h (1 Bft)
10.02.2010 00:00 -3,5 C 95 % 1002,7 hPa 0,0 l/m NO 3,5 km/h (1 Bft)
10.02.2010 01:00 -3,4 C 94 % 1002,8 hPa 0,0 l/m NO 4,5 km/h (1 Bft)
10.02.2010 02:00 -3,5 C 94 % 1002,9 hPa 0,0 l/m N-NO 3,2 km/h (1 Bft)
10.02.2010 03:00 -3,7 C 94 % 1002,8 hPa 0,2 l/m N-NO 2,9 km/h (1 Bft)
10.02.2010 04:00 -3,8 C 94 % 1002,8 hPa 0,4 l/m N-NO 3,3 km/h (1 Bft)
10.02.2010 05:00 -4,1 C 93 % 1003,3 hPa 0,4 l/m N-NO 7,8 km/h (2 Bft)
10.02.2010 06:00 -4,8 C 93 % 1003,6 hPa 0,2 l/m N-NO 9,7 km/h (2 Bft)
10.02.2010 07:00 -5,5 C 92 % 1004,1 hPa 0,2 l/m N 12,2 km/h (2 Bft)
10.02.2010 08:00 -5,8 C 92 % 1004,8 hPa 0,4 l/m N-NO 10,5 km/h (2 Bft)
10.02.2010 09:00 -5,5 C 89 % 1005,3 hPa 0,2 l/m N-NO 13,0 km/h (3 Bft)
10.02.2010 10:00 -4,8 C 87 % 1005,6 hPa 0,2 l/m N-NO 13,0 km/h (3 Bft)
10.02.2010 11:00 -4,4 C 84 % 1005,8 hPa 0,0 l/m N 10,6 km/h (2 Bft)
10.02.2010 12:00 -4,1 C 82 % 1005,6 hPa 0,0 l/m N-NO 12,8 km/h (3 Bft)
10.02.2010 13:00 -4,3 C 82 % 1005,5 hPa 0,0 l/m N-NO 12,6 km/h (3 Bft)
10.02.2010 14:00 -4,4 C 82 % 1005,5 hPa 0,2 l/m N-NO 12,5 km/h (3 Bft)
10.02.2010 15:00 -5,3 C 84 % 1005,6 hPa 0,0 l/m N-NO 16,5 km/h (3 Bft)
10.02.2010 16:00 -6,3 C 86 % 1006,0 hPa 0,2 l/m N-NO 15,2 km/h (3 Bft)
10.02.2010 17:00 -6,9 C 87 % 1006,5 hPa 0,0 l/m N-NO 8,5 km/h (2 Bft)
10.02.2010 18:00 -7,4 C 87 % 1006,9 hPa 0,0 l/m N-NO 8,3 km/h (2 Bft)
10.02.2010 19:00 -7,7 C 88 % 1007,1 hPa 0,0 l/m N-NO 5,6 km/h (1 Bft)
10.02.2010 20:00 -7,8 C 90 % 1007,1 hPa 0,0 l/m N-NO 4,9 km/h (1 Bft)
10.02.2010 21:00 -7,9 C 91 % 1007,0 hPa 0,2 l/m N-NO 5,6 km/h (1 Bft)
10.02.2010 22:00 -8,0 C 90 % 1006,7 hPa 0,0 l/m O-NO 8,8 km/h (2 Bft)
10.02.2010 23:00 -8,2 C 90 % 1006,2 hPa 0,0 l/m N-NO 7,9 km/h (2 Bft)
11.02.2010 00:00 -8,3 C 90 % 1005,9 hPa 0,0 l/m N-NO 5,9 km/h (2 Bft)
11.02.2010 01:00 -8,4 C 90 % 1005,5 hPa 0,2 l/m N-NO 4,5 km/h (1 Bft)
11.02.2010 02:00 -8,6 C 91 % 1005,3 hPa 0,0 l/m N-NO 5,7 km/h (1 Bft)
11.02.2010 03:00 -8,6 C 91 % 1005,1 hPa 0,2 l/m N 5,5 km/h (1 Bft)
11.02.2010 04:00 -8,6 C 91 % 1004,6 hPa 0,2 l/m N 3,3 km/h (1 Bft)
11.02.2010 05:00 -8,7 C 91 % 1004,3 hPa 0,4 l/m N 3,5 km/h (1 Bft)
11.02.2010 06:00 -8,6 C 92 % 1004,0 hPa 0,2 l/m N-NO 4,3 km/h (1 Bft)
11.02.2010 07:00 -8,5 C 92 % 1004,2 hPa 0,2 l/m N-NO 4,5 km/h (1 Bft)
11.02.2010 08:00 -8,1 C 92 % 1004,4 hPa 0,2 l/m N-NO 6,0 km/h (2 Bft)
11.02.2010 09:00 -7,3 C 90 % 1004,4 hPa 0,2 l/m N-NO 7,9 km/h (2 Bft)
11.02.2010 10:00 -6,0 C 88 % 1004,5 hPa 0,2 l/m N-NO 9,1 km/h (2 Bft)
11.02.2010 11:00 -5,3 C 87 % 1004,5 hPa 0,0 l/m NO 8,3 km/h (2 Bft)
11.02.2010 12:00 -4,8 C 86 % 1004,2 hPa 0,2 l/m N-NO 8,2 km/h (2 Bft)
11.02.2010 13:00 -4,5 C 86 % 1004,0 hPa 0,2 l/m N-NO 10,2 km/h (2 Bft)
11.02.2010 14:00 -4,3 C 86 % 1003,9 hPa 0,0 l/m N-NO 9,8 km/h (2 Bft)
11.02.2010 15:00 -4,4 C 87 % 1004,3 hPa 0,2 l/m N-NO 8,7 km/h (2 Bft)
11.02.2010 16:00 -4,5 C 90 % 1004,6 hPa 0,4 l/m NO 7,0 km/h (2 Bft)
11.02.2010 17:00 -4,8 C 92 % 1005,0 hPa 0,6 l/m NO 6,7 km/h (2 Bft)
11.02.2010 18:00 -5,1 C 93 % 1005,4 hPa 0,4 l/m NO 6,7 km/h (2 Bft)
11.02.2010 19:00 -5,3 C 93 % 1005,7 hPa 0,4 l/m N-NO 6,4 km/h (2 Bft)
11.02.2010 20:00 -5,4 C 93 % 1006,2 hPa 0,6 l/m N-NO 5,3 km/h (1 Bft)
11.02.2010 21:00 -5,4 C 93 % 1006,4 hPa 0,2 l/m N-NO 6,5 km/h (2 Bft)
11.02.2010 22:00 -5,3 C 93 % 1006,8 hPa 0,0 l/m N-NO 9,9 km/h (2 Bft)
11.02.2010 23:00 -5,5 C 93 % 1007,0 hPa 0,2 l/m N-NO 14,2 km/h (3 Bft)
12.02.2010 00:00 -5,9 C 92 % 1007,6 hPa 0,0 l/m NO 10,7 km/h (2 Bft)
12.02.2010 01:00 -6,2 C 91 % 1007,8 hPa 0,0 l/m NO 9,4 km/h (2 Bft)
12.02.2010 02:00 -6,4 C 91 % 1008,2 hPa 0,0 l/m N-NO 9,8 km/h (2 Bft)
12.02.2010 03:00 -6,6 C 91 % 1008,5 hPa 0,2 l/m NO 10,3 km/h (2 Bft)
12.02.2010 04:00 -6,8 C 91 % 1008,9 hPa 0,0 l/m O-NO 8,4 km/h (2 Bft)
12.02.2010 05:00 -6,9 C 92 % 1009,4 hPa 0,2 l/m N-NO 6,0 km/h (2 Bft)
12.02.2010 06:00 -7,1 C 92 % 1009,9 hPa 0,0 l/m NO 5,6 km/h (1 Bft)
12.02.2010 07:00 -7,5 C 91 % 1010,6 hPa 0,2 l/m NO 5,1 km/h (1 Bft)
12.02.2010 08:00 -8,2 C 90 % 1011,3 hPa 0,0 l/m NO 2,8 km/h (1 Bft)
12.02.2010 09:00 -6,9 C 91 % 1011,8 hPa 0,0 l/m N-NO 5,9 km/h (2 Bft)
12.02.2010 10:00 -5,5 C 85 % 1012,2 hPa 0,0 l/m NO 6,7 km/h (2 Bft)
12.02.2010 11:00 -4,9 C 84 % 1012,5 hPa 0,0 l/m NO 5,1 km/h (1 Bft)
12.02.2010 12:00 -3,7 C 78 % 1012,4 hPa 0,0 l/m N 7,2 km/h (2 Bft)
12.02.2010 13:00 -2,8 C 75 % 1012,4 hPa 0,0 l/m N-NO 6,9 km/h (2 Bft)
12.02.2010 14:00 -2,6 C 73 % 1012,6 hPa 0,0 l/m N-NO 6,3 km/h (2 Bft)
12.02.2010 15:00 -2,4 C 72 % 1013,0 hPa 0,0 l/m NW 3,6 km/h (1 Bft)
12.02.2010 16:00 -3,0 C 76 % 1013,6 hPa 0,0 l/m NW 2,3 km/h (1 Bft)
12.02.2010 17:00 -4,2 C 81 % 1014,0 hPa 0,0 l/m N 1,7 km/h (1 Bft)
12.02.2010 18:00 -5,1 C 85 % 1014,5 hPa 0,0 l/m N 0,5 km/h (0 Bft)
12.02.2010 19:00 -5,5 C 87 % 1014,9 hPa 0,0 l/m N 0,0 km/h (0 Bft)
12.02.2010 20:00 -6,0 C 88 % 1015,0 hPa 0,0 l/m N 0,0 km/h (0 Bft)
12.02.2010 21:00 -6,4 C 90 % 1015,2 hPa 0,0 l/m N 0,0 km/h (0 Bft)
12.02.2010 22:00 -6,8 C 91 % 1015,3 hPa 0,0 l/m N 0,0 km/h (0 Bft)
12.02.2010 23:00 -6,7 C 92 % 1015,1 hPa 0,0 l/m N 0,0 km/h (0 Bft)
13.02.2010 00:00 -6,8 C 92 % 1015,0 hPa 0,0 l/m N 0,0 km/h (0 Bft)
13.02.2010 01:00 -6,8 C 92 % 1014,8 hPa 0,0 l/m N 0,0 km/h (0 Bft)
13.02.2010 02:00 -6,8 C 92 % 1014,8 hPa 0,0 l/m N 0,0 km/h (0 Bft)
13.02.2010 03:00 -6,8 C 93 % 1014,5 hPa 0,0 l/m N 0,0 km/h (0 Bft)
13.02.2010 04:00 -6,8 C 93 % 1014,4 hPa 0,0 l/m N 0,1 km/h (0 Bft)
13.02.2010 05:00 -6,8 C 93 % 1014,3 hPa 0,0 l/m N 0,0 km/h (0 Bft)
13.02.2010 06:00 -6,8 C 93 % 1014,2 hPa 0,0 l/m N 0,1 km/h (0 Bft)
13.02.2010 07:00 -6,5 C 93 % 1014,6 hPa 0,0 l/m N 0,5 km/h (0 Bft)
13.02.2010 08:00 -6,1 C 93 % 1014,6 hPa 0,0 l/m N 0,3 km/h (0 Bft)
13.02.2010 09:00 -5,2 C 92 % 1014,5 hPa 0,0 l/m N 1,2 km/h (1 Bft)
13.02.2010 10:00 -4,2 C 90 % 1014,8 hPa 0,0 l/m O 3,9 km/h (1 Bft)
13.02.2010 11:00 -3,6 C 89 % 1014,5 hPa 0,0 l/m O 6,1 km/h (2 Bft)
13.02.2010 12:00 -3,1 C 85 % 1013,8 hPa 0,0 l/m O 8,6 km/h (2 Bft)
13.02.2010 13:00 -2,8 C 82 % 1013,5 hPa 0,0 l/m O-NO 6,9 km/h (2 Bft)
13.02.2010 14:00 -2,7 C 82 % 1013,1 hPa 0,0 l/m NO 6,7 km/h (2 Bft)
13.02.2010 15:00 -2,6 C 82 % 1013,1 hPa 0,0 l/m NO 7,9 km/h (2 Bft)
13.02.2010 16:00 -2,8 C 83 % 1013,4 hPa 0,0 l/m NO 8,0 km/h (2 Bft)
13.02.2010 17:00 -3,3 C 85 % 1013,6 hPa 0,0 l/m NO 6,0 km/h (2 Bft)
13.02.2010 18:00 -3,6 C 86 % 1013,7 hPa 0,0 l/m NO 4,0 km/h (1 Bft)
13.02.2010 19:00 -3,7 C 88 % 1013,8 hPa 0,0 l/m O-NO 4,1 km/h (1 Bft)
13.02.2010 20:00 -3,9 C 89 % 1014,0 hPa 0,0 l/m NO 4,3 km/h (1 Bft)
13.02.2010 21:00 -3,9 C 89 % 1014,0 hPa 0,0 l/m N 2,4 km/h (1 Bft)
13.02.2010 22:00 -4,0 C 90 % 1013,8 hPa 0,0 l/m NO 2,7 km/h (1 Bft)
13.02.2010 23:00 -4,2 C 90 % 1013,6 hPa 0,0 l/m NO 2,4 km/h (1 Bft)
14.02.2010 00:00 -4,3 C 91 % 1013,6 hPa 0,0 l/m O-NO 2,7 km/h (1 Bft)
14.02.2010 01:00 -4,5 C 91 % 1013,5 hPa 0,0 l/m O-NO 2,9 km/h (1 Bft)
14.02.2010 02:00 -4,7 C 88 % 1013,5 hPa 0,0 l/m O 3,1 km/h (1 Bft)
14.02.2010 03:00 -4,7 C 87 % 1013,1 hPa 0,0 l/m N 1,9 km/h (1 Bft)
14.02.2010 04:00 -4,8 C 87 % 1012,9 hPa 0,0 l/m O 1,9 km/h (1 Bft)
14.02.2010 05:00 -5,0 C 87 % 1012,9 hPa 0,0 l/m O 3,2 km/h (1 Bft)
14.02.2010 06:00 -5,1 C 87 % 1012,9 hPa 0,0 l/m N 1,7 km/h (1 Bft)
14.02.2010 07:00 -5,1 C 87 % 1012,8 hPa 0,0 l/m SO 3,3 km/h (1 Bft)
14.02.2010 08:00 -5,0 C 86 % 1012,9 hPa 0,0 l/m O 5,5 km/h (1 Bft)
14.02.2010 09:00 -4,6 C 88 % 1012,9 hPa 0,0 l/m O 3,3 km/h (1 Bft)
14.02.2010 10:00 -4,0 C 86 % 1013,0 hPa 0,0 l/m S 4,5 km/h (1 Bft)
14.02.2010 11:00 -4,0 C 86 % 1013,0 hPa 0,0 l/m SW 5,3 km/h (1 Bft)
14.02.2010 12:00 -3,4 C 81 % 1012,5 hPa 0,0 l/m SW 4,9 km/h (1 Bft)
14.02.2010 13:00 -3,2 C 75 % 1012,2 hPa 0,0 l/m S 4,5 km/h (1 Bft)
14.02.2010 14:00 -3,2 C 71 % 1012,0 hPa 0,0 l/m S 3,5 km/h (1 Bft)
14.02.2010 15:00 -2,8 C 71 % 1012,0 hPa 0,0 l/m N 2,8 km/h (1 Bft)
14.02.2010 16:00 -2,8 C 72 % 1011,7 hPa 0,0 l/m S 1,2 km/h (1 Bft)
14.02.2010 17:00 -3,3 C 74 % 1011,8 hPa 0,0 l/m N 0,9 km/h (0 Bft)
14.02.2010 18:00 -4,1 C 78 % 1011,9 hPa 0,0 l/m S 1,6 km/h (1 Bft)
14.02.2010 19:00 -4,5 C 82 % 1011,9 hPa 0,0 l/m N 0,5 km/h (0 Bft)
14.02.2010 20:00 -4,8 C 84 % 1012,1 hPa 0,0 l/m N 0,8 km/h (0 Bft)
14.02.2010 21:00 -4,9 C 85 % 1012,2 hPa 0,0 l/m N 0,7 km/h (0 Bft)
14.02.2010 22:00 -5,1 C 86 % 1011,9 hPa 0,0 l/m N 0,0 km/h (0 Bft)
14.02.2010 23:00 -5,2 C 88 % 1011,8 hPa 0,0 l/m N 0,1 km/h (0 Bft)
Min-Datum _ 11.02.10 14.02.10 09.02.10 - - 08.02.10
_ Min-Zeit 04:30 14:25 15:10 - - 00:00
Minimum _ -8,7 C 70 % 1001,2 hPa - - 0,0 km/h (0 Bft)
Max-Datum _ 09.02.10 10.02.10 12.02.10 11.02.10 - 08.02.10
_ Max-Zeit 14:25 06:45 22:30 17:05 - 11:55
Maximum _ -0,6 C 100 % 1015,4 hPa 0,6 l/m - 22,5 km/h
O-SO (4 Bft)
Durchschnitt _ -4,5 C 89 % 1008,5 hPa #8,8 l/m N-NO 6,0 km/h (2 Bft)